Location: Mexico
(19.4000°N, 99.1500°W)
Time: 02:05:31
(UTC-06:00)

ISS - Pass Details

Date: 21 November 2017
Orbit: 402 x 407 km, 51.6° (Epoch: 21 November)

Event Time Altitude Azimuth Distance (km) Brightness Sun altitude
Rises 20:08:56 0° 238° (WSW) 2,311 1.0 -30.7°
Reaches altitude 10° 20:11:11 10° 250° (WSW) 1,452 -0.2 -31.2°
Enters shadow 20:11:25 11° 252° (WSW) 1,369 -0.3 -31.3°
